Location: ???????
(55.7027°N, 37.3832°E)
Time: 05:07:09
(UTC+00:00)

Cosmos 1869 - Pass Details

Date: 14 April 2026
Orbit: 444 x 468 km, 82.5° (Epoch: 10 May)

Event Time Altitude Azimuth Distance (km) Brightness Sun altitude
Exits shadow 19:54:48 67° 268° (W) 513 3.1 -21.7°
Maximum altitude 19:54:55 68° 284° (WNW) 510 3.2 -21.7°
Drops below altitude 10° 19:58:29 10° 8° (N) 1,642 6.5 -21.9°
Sets 20:00:36 0° 11° (N) 2,526 7.6 -22.0°
